Probability
21 21 20 15 10 6 5 5 7 7 5 4 3 3 2 2 2 2 3 3 3 3 2 1 0 1 2 2 1 0 0 0 0 0 0 0 0 0 0 0 0 1 1
22 21 19 16 13 9 7 7 8 8 6 4 3 3 1 1 1 1 3 3 3 3 2 1 0 0 1 1 0 0 0 0 0 0 0 0 0 0 0 0 0 0 1
20 18 17 17 16 12 10 10 10 9 7 6 4 3 1 1 1 1 2 3 3 4 3 2 1 1 1 1 0 0 0 0 0 0 1 1 1 0 0 0 0 0 0
17 16 17 17 16 14 13 13 13 12 9 8 7 5 3 3 2 1 1 3 4 5 5 4 4 3 2 1 1 1 1 1 1 1 2 2 2 1 1 0 0 0 0
16 16 16 16 17 17 15 15 16 15 12 10 9 7 5 4 4 3 2 3 5 7 7 6 5 4 3 3 2 2 2 2 2 3 3 3 3 3 2 1 0 0 0
18 17 17 17 19 19 17 17 18 17 14 12 11 9 7 6 6 6 6 7 8 8 8 8 7 5 4 4 3 3 3 3 3 3 3 3 3 3 3 2 1 1 1
18 18 19 21 22 22 21 20 19 18 16 13 11 8 7 7 7 8 9 11 10 9 8 9 9 8 5 5 4 3 3 3 3 3 3 3 3 3 4 3 3 2 2
16 17 20 23 23 23 24 23 20 18 16 13 10 7 7 7 9 9 10 10 10 9 9 10 11 8 6 6 4 3 3 3 3 3 3 3 4 4 4 4 3 3 3
14 15 18 23 24 22 24 25 23 20 18 14 11 9 9 9 11 11 10 9 10 11 11 11 10 8 7 7 6 5 3 3 3 3 3 4 4 4 4 3 3 3 3
16 14 17 22 23 22 23 25 26 25 23 19 16 14 12 12 13 14 12 11 11 12 12 12 11 10 10 10 10 8 6 5 4 4 4 4 4 3 3 3 3 3 3
15 15 17 21 22 21 22 24 26 27 26 22 19 17 16 15 15 15 14 13 14 14 14 13 12 13 14 14 14 13 11 9 7 6 5 4 4 3 3 3 3 3 4
16 17 18 20 20 20 21 22 23 25 24 21 17 16 17 18 18 18 18 18 17 17 16 15 14 14 16 18 18 18 17 15 13 12 10 8 7 6 5 5 4 4 5
20 19 17 17 17 18 20 22 23 23 22 20 17 16 18 21 22 21 21 19 19 18 18 17 16 16 17 19 20 21 21 19 18 18 16 13 11 10 9 8 7 6 6
22 20 16 15 16 17 19 21 22 22 23 22 21 19 20 20 20 20 19 16 15 16 16 15 14 14 15 17 19 21 23 21 19 19 18 15 12 11 11 10 8 7 7
22 20 17 15 15 16 18 21 22 22 23 23 22 21 21 19 17 16 15 12 11 11 11 10 10 9 10 12 14 18 20 19 16 15 15 14 11 8 8 9 7 5 5
20 19 18 17 16 16 17 17 17 18 20 20 19 20 20 18 15 14 13 11 10 10 10 10 10 10 9 7 8 12 15 16 14 14 13 11 9 7 6 6 5 4 4
19 19 19 19 18 15 13 12 11 12 15 16 16 17 18 16 14 13 13 12 12 12 12 13 14 13 10 6 4 7 10 13 14 13 12 10 9 8 7 6 5 4 4
19 20 19 19 18 14 10 10 10 11 14 16 16 17 16 14 12 12 13 13 13 14 15 15 16 15 10 6 4 4 7 10 12 13 11 10 9 9 9 8 8 7 6
17 19 20 19 17 15 12 12 13 14 16 19 20 19 18 16 14 13 14 14 15 16 17 16 16 15 11 7 4 3 5 8 11 12 12 10 9 8 8 9 9 9 8
17 18 19 18 17 16 15 15 14 15 17 19 20 20 20 19 17 15 16 17 17 17 16 16 15 15 12 8 4 3 5 7 9 11 10 8 7 5 5 7 9 8 8
17 17 17 17 18 19 18 16 15 15 16 17 16 16 17 18 18 17 17 17 17 17 15 14 14 13 12 8 5 4 5 6 7 7 6 6 5 3 2 4 7 7 6
15 15 15 16 18 19 19 18 16 16 16 15 13 13 14 15 16 16 15 15 16 16 15 13 12 11 9 7 5 4 4 5 5 5 5 5 5 2 0 2 4 4 4
12 12 13 14 15 16 18 19 17 16 15 13 12 12 12 14 15 14 13 13 14 15 14 12 11 9 6 5 4 3 2 2 3 4 5 4 4 2 1 1 2 2 2
9 10 11 12 12 13 15 17 17 16 14 13 13 13 13 14 14 13 11 11 12 12 11 9 7 5 3 3 3 3 3 2 2 3 3 2 1 1 1 2 2 1 1
7 8 10 10 10 10 11 13 15 16 15 13 13 13 14 14 12 11 9 8 8 8 6 5 3 2 2 2 2 3 3 3 3 1 1 0 0 1 2 3 3 3 2
7 8 9 10 9 8 8 10 13 15 15 12 11 12 13 13 11 9 8 6 5 4 3 2 1 1 1 1 1 1 2 2 2 1 0 0 1 2 3 3 3 3 3
Wind_Speed
10 11 11 11 9 8 7 6 6 5 4 3 2 2 1 1 1 2 3 3 2 2 2 2 1 1 1 1 1 1 1 1 1 1 2 2 1 1 1 1 2 2 3
9 10 10 10 9 9 8 7 6 6 5 4 3 2 2 1 2 2 2 3 3 3 3 3 2 2 1 1 1 1 1 1 1 2 1 2 3 2 1 1 2 2 2
12 12 11 10 9 10 10 9 7 6 5 5 3 2 1 1 0 1 1 3 4 4 3 3 3 2 2 2 2 2 2 1 1 2 3 2 2 2 2 1 0 0 1
10 10 11 10 10 9 9 7 7 6 6 5 5 5 4 3 3 2 2 2 3 3 4 3 3 3 2 2 2 2 2 2 1 1 1 2 3 2 1 2 1 1 1
9 11 11 11 10 9 8 7 6 6 6 6 6 6 4 4 2 2 2 3 3 3 4 4 3 3 3 3 3 2 2 2 2 2 1 1 1 2 2 2 2 2 1
9 9 8 7 7 7 7 6 6 6 6 6 6 6 6 5 3 3 3 3 2 2 3 4 4 4 3 4 4 3 3 3 3 2 2 2 2 2 2 2 2 2 2
8 8 8 8 8 8 8 7 7 6 6 6 6 7 7 6 6 5 4 3 3 3 4 4 4 4 4 4 4 3 3 3 3 3 3 2 3 2 3 2 2 2 2
8 9 10 10 9 9 8 7 7 7 6 6 6 5 5 4 4 4 4 4 4 4 4 4 4 5 5 5 4 3 3 3 3 3 3 2 2 3 3 3 3 1 2
8 8 9 9 9 9 9 8 8 7 6 6 5 5 4 4 4 4 3 3 3 3 4 4 4 4 4 4 3 3 3 3 3 3 3 2 2 2 3 3 4 4 2
6 6 7 7 8 8 8 7 7 7 6 5 5 5 4 4 4 3 4 4 4 4 3 3 4 4 4 4 4 3 3 3 3 3 3 3 2 2 2 3 3 3 4
5 6 6 6 7 7 7 7 7 6 5 5 5 4 4 4 4 4 5 5 4 4 4 4 4 4 4 4 3 4 4 4 4 3 3 4 3 2 2 2 2 2 3
4 5 5 4 4 6 7 7 7 7 6 6 5 5 4 4 4 5 5 5 5 4 5 4 4 4 4 4 4 5 4 4 5 4 4 4 3 3 3 2 3 3 3
5 4 3 4 4 5 7 7 7 7 6 5 5 5 4 4 4 5 4 4 4 5 4 4 4 4 4 4 4 5 4 4 5 4 4 4 3 4 3 3 3 3 3
5 5 4 4 4 5 5 6 6 6 5 5 5 5 5 5 5 4 4 4 4 4 4 4 4 4 4 4 4 4 4 4 4 4 4 4 4 5 4 4 4 3 3
4 4 4 5 4 4 4 5 5 5 5 5 5 5 4 3 3 3 3 3 3 4 4 3 3 3 4 4 3 4 4 3 3 3 3 4 4 5 4 3 3 3 3
4 3 4 3 4 4 4 4 4 5 4 4 4 3 3 3 3 3 3 2 3 3 3 3 3 3 3 3 4 3 3 4 3 3 3 3 3 4 5 5 5 5 5
3 3 3 4 4 4 5 5 4 3 3 3 3 3 3 3 3 3 2 3 3 3 2 3 2 3 4 4 3 3 2 3 3 4 3 3 3 3 3 4 4 4 5
2 2 2 2 2 3 3 3 3 3 3 2 2 2 2 3 2 2 3 3 3 2 2 2 3 2 3 3 3 2 2 2 2 3 3 3 3 2 2 2 1 2 3
3 2 2 3 2 1 2 3 3 3 3 2 2 2 2 3 3 3 3 3 2 2 2 2 3 3 3 2 3 2 1 1 2 2 2 3 3 2 2 2 1 1 3
1 1 1 2 2 1 2 3 2 2 2 2 3 3 2 2 3 4 3 2 2 2 2 2 2 3 3 2 2 3 2 2 2 2 2 2 3 3 3 3 2 2 3
2 2 2 2 1 1 2 3 2 3 3 2 1 1 1 2 2 2 2 1 1 1 1 1 2 2 2 2 2 3 2 2 2 2 1 2 2 3 3 3 3 4 3
3 3 3 3 3 2 3 2 1 2 1 1 0 1 1 1 1 1 1 1 1 2 1 1 1 2 2 2 2 2 3 3 2 2 1 1 2 2 2 2 3 3 2
3 3 4 4 3 3 3 2 1 1 1 2 1 1 1 1 1 1 1 1 1 1 1 1 1 2 1 1 1 1 2 2 2 1 1 1 1 1 1 1 1 1 1
3 3 4 3 2 2 2 1 0 0 1 2 2 1 1 1 1 1 1 1 1 1 1 1 2 1 1 1 0 0 1 1 1 1 0 1 1 1 1 1 1 0 1
2 2 2 1 1 1 1 1 1 1 1 0 1 1 1 2 1 1 1 2 2 3 3 3 2 2 2 3 3 2 1 1 2 1 1 1 1 1 1 1 1 1 1
1 1 1 1 1 1 2 2 1 1 1 0 0 1 1 1 1 1 1 2 1 1 2 3 3 2 2 2 1 1 1 1 2 3 2 1 1 1 0 0 1 1 0
Wind_Direction
168 163 163 162 158 157 157 161 163 170 160 157 164 163 184 191 186 190 182 180 179 168 160 166 164 154 161 187 178 157 156 227 122 62 356 339 322 273 234 193 180 205 217
163 165 165 165 167 169 171 170 173 177 176 179 178 172 166 181 197 211 194 193 187 184 180 172 183 181 168 184 184 147 157 249 148 132 92 345 342 339 296 202 183 204 214
172 172 171 173 172 175 179 179 180 179 181 177 157 145 113 84 166 211 216 213 200 195 190 180 183 191 180 196 209 191 185 220 255 173 155 165 234 304 321 305 262 186 200
172 171 170 171 176 183 182 178 178 179 182 174 167 166 173 190 206 201 205 219 211 205 198 188 191 192 191 200 222 211 196 181 217 260 208 187 172 169 298 321 316 270 227
172 175 178 181 179 177 175 175 174 182 185 182 179 178 190 201 202 195 200 218 227 220 210 205 204 201 200 206 212 203 204 192 191 203 207 199 170 161 167 263 301 318 287
177 176 174 171 174 174 176 175 176 193 193 189 188 188 193 194 194 205 209 220 227 230 227 217 211 210 209 210 211 208 208 213 204 203 195 183 179 190 174 206 244 269 282
171 162 165 176 175 174 182 179 181 194 195 194 198 200 199 197 202 206 208 208 219 226 230 227 214 213 217 215 210 211 219 215 212 211 212 206 206 185 171 176 222 259 280
167 164 177 183 181 180 181 178 184 195 193 194 205 206 205 206 213 213 211 214 221 225 224 224 220 219 218 222 213 213 216 215 219 223 214 211 221 189 178 177 176 233 293
177 174 178 179 180 182 183 183 185 193 196 195 199 205 204 207 215 217 214 219 225 226 224 225 224 226 222 219 208 216 221 215 218 222 217 219 227 207 200 184 173 174 224
171 177 173 175 183 185 184 179 180 190 193 195 200 205 211 213 215 214 220 223 226 227 224 227 227 227 226 224 214 221 221 214 225 219 216 227 229 221 209 194 194 184 188
168 174 171 184 183 179 177 180 182 183 189 194 197 201 207 211 215 224 229 228 230 226 227 225 226 226 225 228 224 228 223 222 234 231 218 230 231 227 221 205 199 199 184
143 160 164 170 184 180 179 183 183 184 193 193 192 199 206 211 216 228 234 230 231 232 230 226 222 225 228 224 222 231 228 226 234 235 228 234 231 230 226 211 212 215 203
129 127 133 160 188 195 185 183 183 186 189 186 190 201 209 213 223 235 239 235 236 238 234 222 224 230 233 228 225 225 225 227 234 230 225 232 221 228 225 212 214 220 219
146 141 152 174 189 191 187 182 185 185 181 179 187 201 214 221 229 235 238 237 236 237 236 230 227 223 228 231 228 222 219 225 237 231 227 227 218 226 224 221 216 214 215
147 156 171 184 185 181 184 183 182 180 178 176 186 203 210 214 219 230 239 241 238 240 235 230 236 230 227 232 224 220 219 217 231 240 238 230 216 220 221 220 211 203 205
171 181 191 187 186 181 187 186 186 184 173 175 191 200 200 208 218 229 236 238 243 245 238 236 237 241 247 250 229 216 219 216 216 228 242 244 240 232 229 224 207 192 193
180 181 193 191 190 191 186 179 183 171 166 178 190 190 194 209 224 229 235 239 241 237 241 245 237 240 243 241 231 220 209 217 219 220 225 245 256 238 235 225 210 211 213
169 187 188 186 187 186 171 162 153 145 162 177 200 208 206 215 222 227 238 241 234 230 232 242 240 241 256 246 228 218 206 226 231 219 211 211 234 237 204 195 198 229 231
163 184 173 154 145 158 168 153 155 158 160 184 213 220 210 216 215 221 234 234 231 233 232 237 235 236 258 254 220 200 197 232 251 244 225 209 211 222 182 164 188 257 277
114 140 129 125 126 178 162 147 168 172 180 206 220 222 203 216 217 221 225 222 215 226 229 248 247 237 243 251 220 181 176 220 251 259 248 220 203 200 175 171 185 230 262
88 88 80 89 125 161 144 149 173 210 215 202 197 200 179 218 218 218 221 220 215 209 217 242 268 261 255 252 212 181 177 201 223 237 255 257 222 211 213 204 201 223 238
70 75 71 56 48 64 99 116 200 232 166 128 161 223 184 229 245 197 212 213 193 189 216 230 276 279 267 237 230 195 185 174 176 212 241 258 260 250 243 231 222 218 218
54 65 75 61 49 48 71 82 297 248 151 153 192 219 197 231 224 195 195 209 195 188 210 212 244 275 286 278 276 187 186 173 165 195 244 274 280 287 273 280 246 197 158
53 56 72 63 37 28 43 57 6 328 157 175 185 163 165 210 197 200 196 184 197 195 199 225 238 254 267 269 283 257 215 184 137 116 330 312 346 38 40 23 30 77 162
26 43 78 76 34 24 21 9 29 69 87 154 167 153 177 195 185 189 219 213 220 201 191 211 207 195 230 247 218 193 209 199 186 135 89 63 46 36 22 21 10 17 65
51 0 17 32 356 7 10 7 14 54 88 94 155 181 180 186 189 185 331 347 273 237 203 193 179 198 202 214 217 236 224 200 138 114 112 125 123 146 160 9 347 350 352